Location: Altavilla Irpina
(41.0000°N, 14.7833°E)
Time: 01:01:43
(UTC+00:00)

Meteor 1-27 Rocket - Pass Details

Date: 19 May 2025
Orbit: 829 x 908 km, 81.3° (Epoch: 15 June)

Event Time Altitude Azimuth Distance (km) Brightness Sun altitude
Exits shadow 22:30:52 41° 268° (W) 1,217 4.5 -28.7°
Maximum altitude 22:31:29 42° 285° (WNW) 1,190 4.5 -28.7°
Drops below altitude 10° 22:36:44 10° 356° (N) 2,458 7.1 -28.8°
Sets 22:39:17 0° 3° (N) 3,389 8.0 -28.9°
